FW6829 Weather Reports


time (UTC)temp
C
wind
direction
speed
KPH
gust
KPH
rain 1hr
cm
rain 24hr
cm
rain mn
cm
humidity
%
barometer
mb
20211026141112 6 343 3.2 17.7 0.00 0.00 0.00 75 1062.7
20211026140612 6 303 4.8 17.7 0.00 0.00 0.00 75 1039.4
20211026140112 6 289 6.4 17.7 0.00 0.00 0.00 74 1003.6
20211026135612 6 263 11.3 17.7 0.00 0.00 0.00 74 1002.5
20211026135112 6 308 9.7 17.7 0.00 0.00 0.00 74 1054.2
20211026134612 6 303 8.0 17.7 0.00 0.00 0.00 74 1043.2
20211026134112 6 295 6.4 17.7 0.00 0.00 0.00 74 1037.5
20211026133612 6 316 6.4 17.7 0.00 0.00 0.00 74 1054.8
20211026133112 6 316 9.7 17.7 0.00 0.00 0.00 73 1054.1
20211026132612 6 302 9.7 17.7 0.00 0.00 0.00 74 1039.9
20211026132112 6 279 8.0 17.7 0.00 0.00 0.00 74 1022.1
20211026131612 6 289 8.0 17.7 0.00 0.00 0.00 74 1032.3
20211026131112 6 290 9.7 17.7 0.00 0.00 0.00 74 1044.6
20211026130612 6 293 3.2 19.3 0.00 0.00 0.00 76 1060.7
20211026130112 6 325 6.4 19.3 0.00 0.00 0.00 76 1087.3
20211026125612 6 341 4.8 19.3 0.00 0.00 0.00 75 1058.4
20211026125111 6 337 6.4 19.3 0.00 0.00 0.00 76 1090.6
20211026124611 6 298 6.4 19.3 0.00 0.00 0.00 76 1056.5
20211026124111 6 316 4.8 19.3 0.00 0.00 0.00 76 1054.2
20211026123611 6 289 3.2 19.3 0.00 0.00 0.00 76 980.2
20211026123111 5 299 4.8 19.3 0.00 0.00 0.00 76 1031.9
20211026122611 5 290 3.2 19.3 0.00 0.00 0.00 76 1054.0
20211026122111 5 296 8.0 19.3 0.00 0.00 0.00 76 1044.5
20211026121610 6 297 1.6 19.3 0.00 0.00 0.00 75 1041.8
20211026121110 6 299 6.4 19.3 0.00 0.00 0.00 75 1067.2
20211026120610 6 324 8.0 19.3 0.00 0.00 0.00 75 1043.4
20211026120110 6 290 4.8 19.3 0.00 0.00 0.00 75 1022.8
20211026115610 6 282 6.4 19.3 0.00 0.00 0.00 75 1028.4
20211026115110 6 291 3.2 19.3 0.00 0.00 0.00 74 1063.8
20211026114610 6 307 8.0 19.3 0.00 0.00 0.00 75 1077.1
20211026114110 6 304 9.7 19.3 0.00 0.00 0.00 75 1076.1
20211026113610 6 312 4.8 19.3 0.00 0.00 0.00 77 1059.7
20211026113110 6 330 4.8 19.3 0.00 0.00 0.00 77 1122.1
20211026112610 6 319 6.4 19.3 0.00 0.00 0.00 77 1101.8
20211026112110 5 299 4.8 19.3 0.00 0.00 0.00 78 1097.4
20211026111610 5 348 3.2 19.3 0.00 0.00 0.00 80 1115.7
20211026111110 5 303 4.8 19.3 0.00 0.00 0.00 79 1054.6
20211026110610 5 307 4.8 19.3 0.00 0.00 0.00 80 1065.7
20211026110110 5 322 8.0 19.3 0.00 0.00 0.00 81 1057.8
20211026105610 5 307 6.4 20.9 0.00 0.00 0.00 82 1016.6
20211026105110 5 286 8.0 20.9 0.00 0.00 0.00 81 955.1
20211026104610 5 355 8.0 20.9 0.00 0.00 0.00 81 889.5
20211026104110 5 321 8.0 17.7 0.00 0.00 0.00 81 988.1
20211026103610 5 344 8.0 17.7 0.00 0.00 0.00 81 930.7
20211026103110 5 341 9.7 17.7 0.00 0.00 0.00 81 867.4
20211026102610 5 3 6.4 17.7 0.00 0.00 0.00 82 932.0
20211026102110 5 341 8.0 17.7 0.00 0.00 0.00 83 1058.6
20211026101610 5 316 8.0 20.9 0.00 0.00 0.00 83 1084.4
20211026101110 5 354 8.0 20.9 0.00 0.00 0.00 83 1053.0
20211026100610 5 335 12.9 20.9 0.00 0.00 0.00 82 1096.0
20211026100110 5 321 11.3 20.9 0.00 0.00 0.00 82 1055.5
20211026095610 5 326 14.5 20.9 0.00 0.00 0.00 82 1049.7
20211026095109 5 305 4.8 17.7 0.00 0.00 0.00 83 983.6
20211026094609 5 294 6.4 17.7 0.00 0.00 0.00 83 924.0
20211026094109 5 355 4.8 17.7 0.00 0.00 0.00 83 917.7
20211026093609 5 288 0.0 17.7 0.00 0.00 0.00 83 1065.7
20211026093109 5 332 1.6 17.7 0.00 0.00 0.00 84 1086.3
20211026092608 5 327 4.8 17.7 0.00 0.00 0.00 84 1026.3
20211026092108 4 0 3.2 17.7 0.00 0.00 0.00 85 1050.9
20211026091608 4 343 4.8 17.7 0.00 0.00 0.00 85 1103.4
20211026091108 4 315 3.2 17.7 0.00 0.00 0.00 86 1091.5
20211026090608 4 347 3.2 17.7 0.00 0.00 0.00 85 1062.6
20211026090108 4 307 4.8 17.7 0.00 0.00 0.00 86 1019.7
20211026085608 4 336 4.8 17.7 0.00 0.00 0.00 86 926.5
20211026085107 4 6 4.8 17.7 0.00 0.00 0.00 87 883.3
20211026084607 4 356 3.2 17.7 0.00 0.00 0.00 87 966.5
20211026084107 4 16 3.2 17.7 0.00 0.00 0.00 87 724.5
20211026083607 3 356 3.2 17.7 0.00 0.00 0.00 87 1094.7
20211026083107 3 331 3.2 17.7 0.00 0.00 0.00 87 1006.1
20211026082607 3 340 4.8 17.7 0.00 0.00 0.00 87 880.7
20211026082106 3 347 8.0 17.7 0.00 0.00 0.00 87 854.3
20211026081606 3 347 4.8 17.7 0.00 0.00 0.00 87 745.1
20211026081106 3 10 3.2 17.7 0.00 0.00 0.00 88 380.2
20211026080605 3 36 4.8 17.7 0.00 0.00 0.00 88 446.0
20211026080105 3 47 4.8 17.7 0.00 0.00 0.00 87 591.4
20211026075604 3 8 4.8 17.7 0.00 0.00 0.00 88 916.3
20211026075104 3 326 3.2 17.7 0.00 0.00 0.00 88 1019.9
20211026074604 3 336 4.8 17.7 0.00 0.00 0.00 89 914.2
20211026074104 3 9 4.8 17.7 0.00 0.00 0.00 90 707.2
20211026073604 3 358 6.4 17.7 0.00 0.00 0.00 91 785.3
20211026073104 2 353 0.0 17.7 0.00 0.00 0.00 92 656.7
20211026072603 2 0 3.2 17.7 0.00 0.00 0.00 94 998.0
20211026072103 2 352 0.0 17.7 0.00 0.00 0.00 94 1207.8
20211026071603 2 352 0.0 17.7 0.00 0.00 0.00 93 1205.9
20211026071103 2 352 0.0 17.7 0.00 0.00 0.00 92 1201.2
20211026070602 2 352 0.0 17.7 0.00 0.00 0.00 91 1192.5
20211026070102 2 330 3.2 17.7 0.00 0.00 0.00 91 1185.3
20211026065602 3 355 1.6 17.7 0.00 0.00 0.00 90 1197.5
20211026065102 3 355 1.6 17.7 0.00 0.00 0.00 87 1180.6
20211026064602 3 342 6.4 17.7 0.00 0.00 0.00 88 1143.6
20211026064102 3 327 4.8 17.7 0.00 0.00 0.00 89 1120.1
20211026063602 3 325 3.2 17.7 0.00 0.00 0.00 89 1114.4
20211026063102 3 325 3.2 17.7 0.00 0.00 0.00 89 1104.1
20211026062602 3 325 1.6 17.7 0.00 0.00 0.00 89 1082.6
20211026062102 3 325 3.2 17.7 0.00 0.00 0.00 88 1036.8
20211026061601 4 350 3.2 17.7 0.00 0.00 0.00 88 1098.9
20211026061101 4 350 4.8 17.7 0.00 0.00 0.00 88 1001.4
20211026060601 3 6 4.8 17.7 0.00 0.00 0.00 88 804.7
20211026060101 3 2 6.4 17.7 0.00 0.00 0.00 89 769.6
20211026055601 3 3 4.8 17.7 0.00 0.00 0.00 89 705.6
20211026055101 3 358 3.2 17.7 0.00 0.00 0.00 88 571.5
20211026054601 4 60 3.2 17.7 0.00 0.00 0.00 89 345.9
20211026054101 4 41 3.2 17.7 0.00 0.00 0.00 89 370.1
20211026053601 3 61 4.8 17.7 0.00 0.00 0.00 90 429.4
20211026053101 3 122 0.0 17.7 0.00 0.00 0.00 91 476.3
20211026052602 3 68 0.0 17.7 0.00 0.00 0.00 91 466.8
20211026052101 3 195 0.0 17.7 0.00 0.00 0.00 91 477.8
20211026051601 3 46 1.6 17.7 0.00 0.00 0.00 90 333.3
20211026051100 4 66 1.6 17.7 0.00 0.00 0.00 89 322.8
20211026050600 4 55 4.8 17.7 0.00 0.00 0.00 89 330.0
20211026050101 4 63 1.6 17.7 0.00 0.00 0.00 90 339.1
20211026045600 3 44 1.6 17.7 0.00 0.00 0.00 90 338.9
20211026045101 3 66 1.6 17.7 0.00 0.00 0.00 90 388.7
20211026044559 3 79 1.6 17.7 0.00 0.00 0.00 91 386.6
20211026044100 3 82 0.0 17.7 0.00 0.00 0.00 91 390.5
20211026043600 4 82 0.0 17.7 0.00 0.00 0.00 91 384.9
20211026043059 4 73 1.6 17.7 0.00 0.00 0.00 92 379.7
20211026042600 4 73 1.6 17.7 0.00 0.00 0.00 92 394.5
20211026042059 4 85 3.2 17.7 0.00 0.00 0.00 93 425.7
20211026041559 4 97 1.6 17.7 0.00 0.00 0.00 94 374.2
20211026041059 3 57 0.0 17.7 0.00 0.00 0.00 94 355.2
20211026040559 3 57 0.0 17.7 0.00 0.00 0.00 94 385.4
20211026040059 3 57 0.0 17.7 0.00 0.00 0.00 94 445.5
20211026035558 3 62 0.0 17.7 0.00 0.00 0.00 95 570.8
20211026035058 3 178 1.6 17.7 0.00 0.00 0.00 95 674.4
20211026034559 3 211 1.6 17.7 0.00 0.00 0.00 94 621.4
20211026034059 3 133 1.6 17.7 0.00 0.00 0.00 94 470.0
20211026033559 4 84 1.6 17.7 0.00 0.00 0.00 93 385.5
20211026033059 4 53 0.0 17.7 0.00 0.00 0.00 94 400.0
20211026032559 4 53 1.6 17.7 0.00 0.00 0.00 93 489.4
20211026032058 4 68 0.0 17.7 0.00 0.00 0.00 94 539.3
20211026031559 4 153 3.2 17.7 0.00 0.00 0.00 95 720.8
20211026031058 4 208 0.0 17.7 0.00 0.00 0.00 95 777.9
20211026030558 4 208 0.0 17.7 0.00 0.00 0.00 94 783.6
20211026030058 4 213 1.6 17.7 0.00 0.00 0.00 95 788.5
20211026025558 4 213 0.0 17.7 0.00 0.00 0.00 95 788.7
20211026025057 4 213 0.0 17.7 0.00 0.00 0.00 95 787.2
20211026024558 4 213 0.0 17.7 0.00 0.00 0.00 95 784.3
20211026024058 4 213 0.0 17.7 0.00 0.00 0.00 94 778.6
20211026023557 4 213 0.0 17.7 0.00 0.00 0.00 95 767.5
20211026023057 4 213 0.0 17.7 0.00 0.00 0.00 95 747.2
20211026022557 4 213 0.0 17.7 0.00 0.00 0.00 93 709.0
20211026022057 4 213 1.6 17.7 0.00 0.00 0.00 94 633.9
20211026021557 4 168 1.6 17.7 0.00 0.00 0.00 94 526.3
20211026021057 4 129 1.6 17.7 0.00 0.00 0.00 93 451.2
20211026020557 5 125 0.0 17.7 0.00 0.00 0.00 92 405.1
20211026020057 5 49 1.6 17.7 0.00 0.00 0.00 92 314.2
20211026015557 5 43 1.6 17.7 0.00 0.00 0.00 92 339.2
20211026015057 5 96 0.0 17.7 0.00 0.00 0.00 92 410.4
20211026014556 5 99 1.6 17.7 0.00 0.00 0.00 91 377.1
20211026014056 5 67 1.6 17.7 0.00 0.00 0.00 91 321.2
20211026013556 5 48 1.6 17.7 0.00 0.00 0.00 91 315.9
20211026013055 5 51 1.6 17.7 0.00 0.00 0.00 91 321.7
20211026012555 5 29 3.2 17.7 0.00 0.00 0.00 91 355.9
20211026012054 6 88 1.6 17.7 0.00 0.00 0.00 91 428.7
20211026011554 6 96 3.2 17.7 0.00 0.00 0.00 90 384.2
20211026011054 5 65 6.4 17.7 0.00 0.00 0.00 90 367.9
20211026010554 5 48 8.0 17.7 0.00 0.00 0.00 91 372.0
20211026010054 5 48 4.8 17.7 0.00 0.00 0.00 91 372.0
20211026005554 5 42 3.2 17.7 0.00 0.00 0.00 92 377.1
20211026005054 5 174 3.2 17.7 0.00 0.00 0.00 92 423.9
20211026004554 5 85 1.6 17.7 0.00 0.00 0.00 92 356.8
20211026004053 6 59 1.6 17.7 0.00 0.00 0.00 91 322.1
20211026003552 6 58 0.0 17.7 0.00 0.00 0.00 91 336.5
20211026003052 5 58 1.6 17.7 0.00 0.00 0.00 92 347.3
20211026002552 5 74 1.6 17.7 0.00 0.00 0.00 93 366.2
20211026002052 5 53 3.2 17.7 0.00 0.00 0.00 93 375.8
20211026001551 5 88 1.6 17.7 0.00 0.00 0.00 94 427.4
20211026001051 5 91 1.6 17.7 0.00 0.00 0.00 94 436.5
20211026000551 5 91 0.0 17.7 0.00 0.00 0.00 93 448.9
20211026000051 5 100 1.6 17.7 0.00 0.00 0.00 95 472.7
20211025235551 5 105 1.6 17.7 0.00 0.00 0.00 95 491.7
20211025235051 5 105 1.6 17.7 0.00 0.00 0.00 95 516.9
20211025234551 5 73 3.2 17.7 0.00 0.00 0.00 94 608.6
20211025234051 5 217 1.6 17.7 0.00 0.00 0.00 94 732.4
20211025233551 5 217 0.0 17.7 0.00 0.00 0.00 94 667.3
20211025233051 5 142 1.6 17.7 0.00 0.00 0.00 94 549.9
20211025232551 5 148 1.6 17.7 0.00 0.00 0.00 95 528.0
20211025232051 5 122 0.0 17.7 0.00 0.00 0.00 95 493.1
20211025231551 5 115 1.6 17.7 0.00 0.00 0.00 94 477.7
20211025231051 6 114 0.0 17.7 0.00 0.00 0.00 95 463.2
20211025230550 6 92 0.0 17.7 0.00 0.00 0.00 94 433.0
20211025230050 6 90 0.0 17.7 0.00 0.00 0.00 94 440.0
20211025225550 6 90 0.0 17.7 0.00 0.00 0.00 95 459.6
20211025225050 6 110 3.2 17.7 0.00 0.00 0.00 95 501.4
20211025224550 6 119 1.6 17.7 0.00 0.00 0.00 95 512.9
20211025224050 6 120 0.0 17.7 0.00 0.00 0.00 95 517.0
20211025223550 6 120 0.0 17.7 0.00 0.00 0.00 95 524.8
20211025223050 6 121 1.6 17.7 0.00 0.00 0.00 96 542.8
20211025222550 6 103 0.0 17.7 0.00 0.00 0.00 95 469.5
20211025222049 6 103 0.0 17.7 0.00 0.00 0.00 95 478.2
20211025221549 6 103 0.0 17.7 0.00 0.00 0.00 95 494.0
20211025221049 6 103 0.0 17.7 0.00 0.00 0.00 95 524.7
20211025220549 6 103 0.0 17.7 0.00 0.00 0.00 95 584.7
20211025220049 6 103 1.6 17.7 0.00 0.00 0.00 95 707.2
20211025215549 6 226 3.2 17.7 0.00 0.00 0.00 95 823.0
20211025215049 6 226 1.6 17.7 0.00 0.00 0.00 96 820.7
20211025214549 5 226 1.6 17.7 0.00 0.00 0.00 96 819.7
20211025214049 5 226 0.0 17.7 0.00 0.00 0.00 96 814.0
20211025213548 6 226 0.0 17.7 0.00 0.00 0.00 95 802.4
20211025213048 6 226 0.0 17.7 0.00 0.00 0.00 95 780.4
20211025212548 6 226 0.0 17.7 0.00 0.00 0.00 95 735.8
20211025212048 6 226 1.6 17.7 0.00 0.00 0.00 95 647.9
20211025211547 6 171 3.2 17.7 0.00 0.00 0.00 95 469.6
20211025211047 6 82 0.0 17.7 0.00 0.00 0.00 95 408.8
20211025210547 6 82 0.0 17.7 0.00 0.00 0.00 95 418.6
20211025210047 6 82 0.0 17.7 0.00 0.00 0.00 95 436.6
20211025205547 6 81 1.6 17.7 0.00 0.00 0.00 95 471.2
20211025205047 6 102 3.2 17.7 0.00 0.00 0.00 95 547.8
20211025204547 6 119 1.6 17.7 0.00 0.00 0.00 95 613.1
20211025204047 6 143 1.6 17.7 0.00 0.00 0.00 95 703.8
20211025203547 6 203 1.6 17.7 0.00 0.00 0.00 95 774.0
20211025203047 6 209 0.0 17.7 0.00 0.00 0.00 95 781.9
20211025202546 6 209 0.0 17.7 0.00 0.00 0.00 94 786.6
20211025202045 6 209 0.0 17.7 0.00 0.00 0.00 94 794.7
20211025201545 6 222 3.2 17.7 0.00 0.00 0.00 94 798.9
20211025201044 6 233 1.6 17.7 0.00 0.00 0.00 94 801.5
20211025200543 6 104 1.6 17.7 0.00 0.00 0.00 95 917.1
20211025200043 6 352 1.6 17.7 0.00 0.00 0.00 95 1137.0
20211025195543 6 352 0.0 17.7 0.00 0.00 0.00 94 1077.5
20211025195043 6 349 1.6 17.7 0.00 0.00 0.00 95 963.1
20211025194543 6 348 1.6 17.7 0.00 0.00 0.00 95 745.5
20211025194042 6 17 1.6 17.7 0.00 0.00 0.00 95 309.0
20211025193542 6 34 0.0 17.7 0.00 0.00 0.00 95 192.2
20211025193042 5 2 0.0 17.7 0.00 0.00 0.00 95 155.8
20211025192541 5 2 0.0 17.7 0.00 0.00 0.00 95 158.2
20211025192041 5 2 0.0 17.7 0.00 0.00 0.00 95 162.5
20211025191541 5 2 0.0 17.7 0.00 0.00 0.00 95 168.3
20211025191041 6 2 0.0 17.7 0.00 0.00 0.00 95 180.4
20211025190541 6 2 0.0 17.7 0.00 0.00 0.00 95 204.7
20211025190041 6 2 0.0 17.7 0.00 0.00 0.00 95 251.1
20211025185540 6 61 1.6 17.7 0.00 0.00 0.00 95 348.2
20211025185040 6 68 0.0 17.7 0.00 0.00 0.00 95 355.9
20211025184540 6 68 0.0 17.7 0.00 0.00 0.00 94 356.4
20211025184039 6 68 0.0 17.7 0.00 0.00 0.00 94 358.9
20211025183539 6 69 1.6 17.7 0.00 0.00 0.00 95 362.6
20211025183039 6 71 3.2 17.7 0.00 0.00 0.00 95 368.6
20211025182539 6 64 1.6 17.7 0.00 0.00 0.00 94 355.8
20211025182039 6 66 3.2 17.7 0.00 0.00 0.00 94 374.5
20211025181539 6 54 3.2 17.7 0.00 0.00 0.00 94 394.2
20211025181038 6 92 1.6 17.7 0.00 0.00 0.00 94 460.7
20211025180537 6 84 3.2 17.7 0.00 0.00 0.00 94 494.8
20211025180037 6 93 1.6 17.7 0.00 0.00 0.00 94 607.6
20211025175537 6 87 3.2 17.7 0.00 0.00 0.00 94 722.0
20211025175037 6 289 0.0 17.7 0.00 0.00 0.00 93 954.9
20211025174537 6 324 0.0 17.7 0.00 0.00 0.00 93 853.5
20211025174037 6 288 1.6 17.7 0.00 0.00 0.00 93 608.9
20211025173536 6 112 1.6 17.7 0.00 0.00 0.00 93 442.6
20211025173036 6 88 0.0 17.7 0.00 0.00 0.00 93 432.1
20211025172536 6 98 1.6 17.7 0.00 0.00 0.00 93 441.4
20211025172036 6 97 0.0 17.7 0.00 0.00 0.00 93 440.4
20211025171536 6 97 0.0 17.7 0.00 0.00 0.00 93 440.3
20211025171035 6 94 0.0 17.7 0.00 0.00 0.00 93 441.5
20211025170534 6 102 1.6 17.7 0.00 0.00 0.00 93 451.0
20211025170034 6 101 0.0 17.7 0.00 0.00 0.00 93 450.4
20211025165534 6 103 1.6 17.7 0.00 0.00 0.00 93 452.1
20211025165034 6 103 1.6 17.7 0.00 0.00 0.00 93 448.0
20211025164534 6 103 0.0 17.7 0.00 0.00 0.00 93 438.5
20211025164033 5 103 1.6 17.7 0.00 0.00 0.00 93 418.6
20211025163533 6 78 0.0 17.7 0.00 0.00 0.00 92 405.7
20211025163033 6 78 0.0 17.7 0.00 0.00 0.00 92 431.8
20211025162532 6 113 1.6 17.7 0.00 0.00 0.00 92 446.2
20211025162032 6 103 1.6 17.7 0.00 0.00 0.00 93 411.7
20211025161532 6 85 1.6 17.7 0.00 0.00 0.00 93 403.1
20211025161032 6 85 0.0 17.7 0.00 0.00 0.00 92 403.3
20211025160532 6 85 0.0 17.7 0.00 0.00 0.00 92 403.1
20211025160031 6 85 0.0 17.7 0.00 0.00 0.00 91 402.4
20211025155531 6 85 1.6 17.7 0.00 0.00 0.00 92 400.6
20211025155031 6 84 1.6 17.7 0.00 0.00 0.00 91 400.1
20211025154531 6 84 0.0 17.7 0.00 0.00 0.00 91 398.7
20211025154030 6 84 0.0 17.7 0.00 0.00 0.00 91 396.3
20211025153530 6 85 0.0 17.7 0.00 0.00 0.00 91 393.3
20211025153030 6 85 0.0 17.7 0.00 0.00 0.00 91 384.6
20211025152529 6 73 0.0 17.7 0.00 0.00 0.00 91 367.2
20211025152029 6 73 0.0 17.7 0.00 0.00 0.00 91 367.1
20211025151529 6 73 0.0 17.7 0.00 0.00 0.00 91 367.0
20211025151029 6 74 0.0 17.7 0.00 0.00 0.00 91 366.6
20211025150529 6 74 0.0 17.7 0.00 0.00 0.00 90 361.0
20211025150029 6 74 0.0 17.7 0.00 0.00 0.00 89 349.1
20211025145528 6 30 0.0 17.7 0.00 0.00 0.00 89 330.5
20211025145028 6 45 1.6 17.7 0.00 0.00 0.00 89 426.6
20211025144528 6 183 3.2 17.7 0.00 0.00 0.00 89 412.3
20211025144027 6 49 3.2 17.7 0.00 0.00 0.00 89 280.3
20211025143527 6 60 3.2 17.7 0.00 0.00 0.00 90 288.8
20211025143027 6 38 3.2 17.7 0.00 0.00 0.00 89 250.9
20211025142527 6 23 4.8 17.7 0.00 0.00 0.00 90 257.4
20211025142027 6 42 0.0 17.7 0.00 0.00 0.00 91 276.7
20211025141527 6 42 0.0 17.7 0.00 0.00 0.00 90 279.9